Satellite: NOAA-17
Catalog number: 27453
Epoch time:      10357.40446163
Element set:     113
Inclination:      098.4058 deg
RA of node:       039.9741 deg
Eccentricity:    0.0010916
Arg of perigee:   306.9141 deg
Mean anomaly:     053.1036 deg
Mean motion:   14.24220584 rev/day
Decay rate:        9.0e-08 rev/day^2
Epoch rev:           44163
Checksum:              275

Satellite: NOAA-18
Catalog number: 28654
Epoch time:      10357.43856697
Element set:     600
Inclination:      098.9755 deg
RA of node:       303.3688 deg
Eccentricity:    0.0013558
Arg of perigee:   238.7355 deg
Mean anomaly:     121.2502 deg
Mean motion:   14.11418332 rev/day
Decay rate:      -1.83e-06 rev/day^2
Epoch rev:           28813
Checksum:              319

Satellite: NOAA-19
Catalog number: 33591
Epoch time:      10357.39711285
Element set:     792
Inclination:      098.8106 deg
RA of node:       295.6734 deg
Eccentricity:    0.0014873
Arg of perigee:   112.4459 deg
Mean anomaly:     247.8295 deg
Mean motion:   14.11114056 rev/day
Decay rate:       2.38e-06 rev/day^2
Epoch rev:            9659
Checksum:              331

/EX
SB KEPS @ AMSAT  $ORB10357.M
Orbital Elements  10357.MISC

HR AMSAT ORBITAL ELEMENTS FOR MANNED AND MISCELLANEOUS SATELLITES
FROM WA5QGD FORT WORTH,TX December 23, 2010
Send Subscribe/unsubscribe to KEPS at http://www.amsat.org/mailman/listinfo/kep
BID: ORB10357.M
TO ALL RADIO AMATEURS BT

Satellite: HUBBLE
Catalog number: 20580
Epoch time:      10355.61426390
Element set:     690
Inclination:      028.4688 deg
RA of node:       096.1547 deg
Eccentricity:    0.0003452
Arg of perigee:   034.7810 deg
Mean anomaly:     325.3095 deg
Mean motion:   15.01122689 rev/day
Decay rate:       6.49e-06 rev/day^2
Epoch rev:           93294
Checksum:              297

Satellite: ISS
Catalog number: 25544
Epoch time:      10357.88699256
Element set:     513
Inclination:      051.6489 deg
RA of node:       339.5126 deg
Eccentricity:    0.0005277
Arg of perigee:   066.0764 deg
Mean anomaly:     017.4680 deg
Mean motion:   15.72128206 rev/day
Decay rate:     2.0709e-04 rev/day^2
Epoch rev:           69331
Checksum:              317

Satellite: CO-58
Catalog number: 28895
Epoch time:      10357.69177789
Element set:     758
Inclination:      097.9906 deg
RA of node:       235.6049 deg
Eccentricity:    0.0018774
Arg of perigee:   053.1957 deg
Mean anomaly:     307.1022 deg
Mean motion:   14.59984075 rev/day
Decay rate:       2.63e-06 rev/day^2
Epoch rev:           27463
Checksum:              371

Satellite: FALCON
Catalog number: 30776
Epoch time:      10356.96344337
Element set:    0999
Inclination:      035.4346 deg
RA of node:       337.9102 deg
Eccentricity:    0.0001456
Arg of perigee:   350.0105 deg
Mean anomaly:     010.0589 deg
Mean motion:   15.04024407 rev/day
Decay rate:       9.16e-06 rev/day^2
Epoch rev:           20849
Checksum:              282

Satellite: MAST
Catalog number: 31126
Epoch time:      10357.65459746
Element set:      42
Inclination:      097.9144 deg
RA of node:       029.6349 deg
Eccentricity:    0.0094870
Arg of perigee:   357.6384 deg
Mean anomaly:     002.4378 deg
Mean motion:   14.53656922 rev/day
Decay rate:       1.15e-06 rev/day^2
Epoch rev:           19558
Checksum:              323

Satellite: CAPE1
Catalog number: 31130
Epoch time:      10357.54393651
Element set:      62
Inclination:      097.9170 deg
RA of node:       026.5807 deg
Eccentricity:    0.0102797
Arg of perigee:   007.3489 deg
Mean anomaly:     352.9188 deg
Mean motion:   14.52269481 rev/day
Decay rate:       1.25e-06 rev/day^2
Epoch rev:           19514
Checksum:              302

Satellite: COMPASS
Catalog number: 32787
Epoch time:      10357.22084852
Element set:     862
Inclination:      097.8720 deg
RA of node:       059.1577 deg
Eccentricity:    0.0016431
Arg of perigee:   033.1249 deg
Mean anomaly:     327.0981 deg
Mean motion:   14.82088606 rev/day
Decay rate:       6.91e-06 rev/day^2
Epoch rev:           14349
Checksum:              313

Satellite: AAUSAT2
Catalog number: 32788
Epoch time:      10356.12476212
Element set:    0853
Inclination:      097.8736 deg
RA of node:       058.2518 deg
Eccentricity:    0.0016040
Arg of perigee:   038.1485 deg
Mean anomaly:     322.0887 deg
Mean motion:   14.82244396 rev/day
Decay rate:       4.92e-06 rev/day^2
Epoch rev:           14334
Checksum:              307

Satellite: DO-64
Catalog number: 32789
Epoch time:      10356.85118173
Element set:    0871
Inclination:      097.8821 deg
RA of node:       059.6792 deg
Eccentricity:    0.0015962
Arg of perigee:   034.2843 deg
Mean anomaly:     325.9375 deg
Mean motion:   14.82504825 rev/day
Decay rate:       4.89e-06 rev/day^2
Epoch rev:           14345
Checksum:              345

Satellite: CO-66
Catalog number: 32791
Epoch time:      10355.65168626
Element set:    0855
Inclination:      097.8745 deg
RA of node:       057.5995 deg
Eccentricity:    0.0016808
Arg of perigee:   037.0437 deg
Mean anomaly:     323.1910 deg
Mean motion:   14.81835138 rev/day
Decay rate:       2.19e-06 rev/day^2
Epoch rev:           14321
Checksum:              327

